Location: Ferchesar
(52.6477°N, 12.4298°E)
Time: 07:20:37
(UTC+02:00)

Transit 4A - Pass Details

Date: 27 February 2021
Orbit: 869 x 976 km, 66.8° (Epoch: 12 April)

Event Time Altitude Azimuth Distance (km) Brightness Sun altitude
Rises 09:50:01 0° 154° (SSE) 3,660 12.4 21.0°
Reaches altitude 10° 09:53:58 10° 130° (SE) 2,711 12.3 21.4°
Maximum altitude 09:56:59 14° 101° (ESE) 2,430 11.1 21.7°
Drops below altitude 10° 09:59:59 10° 73° (ENE) 2,699 10.7 22.0°
Sets 10:03:52 0° 49° (NE) 3,631 11.0 22.3°
